Find Local Weather

World > North America > United States > Missouri

Eminence, Missouri Regional Weather

Lat: 37.15N, Lon: 91.36W
Wx Zone: MOZ098
Feedback
Expires:201812152200;;848263
ASUS43 KLSX 152107
RWRMO 

WEATHER SUMMARY FOR MISSOURI
NATIONAL WEATHER SERVICE SPRINGFIELD MO
300 PM CST SAT DEC 15 2018

NOTE: "FAIR" INDICATES FEW OR NO CLOUDS BELOW 12,000 FEET WITH NO
       SIGNIFICANT WEATHER AND/OR OBSTRUCTIONS TO VISIBILITY.
       CURRENT SKY AND/OR WEATHER CONDITIONS ARE NOT AVAILABLE FOR
       CHILLICOTHE AND FARMINGTON.


MOZ072>076-082>087-097>100-106>115-152200-
...SOUTH CENTRAL AND SOUTHEAST MISSOURI...
  
CITY           SKY/WX    TMP DP  RH WIND       PRES   REMARKS
CAPE GIRARDEAU CLOUDY    45  41  86 N15       29.95R                  
FARMINGTON     CLOUDY    46  42  86 NW12      30.01R                  
POPLAR BLUFF   CLOUDY    46  44  93 NW13G21   29.97R                  
WEST PLAINS    CLOUDY    50  43  77 N8        30.02S                  
                                       
$$
  

SKY/WX - Weather  TMP - Temperature  DP - Dew Point  RH - Relative Humidity
WIND - Wind Direction/Speed PRES - Barometric Pressure